Location: Ammerl�gen
(47.2167°N, 9.6000°E)
Time: 11:07:47
(UTC+00:00)

Spot 2 Rocket - Pass Details

Date: 21 April 2021
Orbit: 756 x 773 km, 98.5° (Epoch: 07 May)

Event Time Altitude Azimuth Distance (km) Brightness Sun altitude
Exits shadow 21:09:34 35° 213° (SSW) 1,234 4.3 -23.8°
Maximum altitude 21:11:13 47° 261° (W) 1,015 4.2 -24.0°
Drops below altitude 10° 21:16:07 10° 335° (NNW) 2,309 7.0 -24.5°
Sets 21:18:31 0° 341° (NNW) 3,237 8.0 -24.7°
